Regional Weather Roundup
Issued by NWS

Home | Current Version | Previous Version | Text Only | Print | Product List | Glossary Off
Versions: 1 2 3 4 5 6 7 8 9 10 11 12 13 14 15 16 17 18 19 20 21 22 23 24 25 26 27 28 29 30 31 32 33 34 35 36 37 38 39 40 41 42 43 44 45 46 47 48 49 50

000
ASUS43 KTOP 011508
RWRKS

WEATHER ROUNDUP FOR KANSAS
NATIONAL WEATHER SERVICE GOODLAND KS
1000 AM CDT SAT AUG 01 2015

NOTE:  "FAIR" INDICATES FEW OR NO CLOUDS BELOW 12,000 FEET WITH NO
SIGNIFICANT WEATHER AND/OR OBSTRUCTIONS TO VISIBILITY.

KSZ001>006-013>018-027>032-041>047-011600-
NORTHWEST KANSAS

CITY           SKY/WX    TMP DP  RH WIND       PRES   REMARKS
GOODLAND       SUNNY     78  62  57 SW12      30.14S
HAYS           SUNNY     81  66  61 SW8       30.09F
HILL CITY      SUNNY     81  68  64 SW3       30.10S
RUSSELL        SUNNY     81  71  71 VRB3      30.09R
$$

KSZ061>065-074>080-084>089-011600-
SOUTHWEST KANSAS

CITY           SKY/WX    TMP DP  RH WIND       PRES   REMARKS
DODGE CITY     SUNNY     78  65  63 S8        30.13R
ELKHART          N/A     73  63  71 S12         N/A
GARDEN CITY    MOSUNNY   74  70  87 S8        30.13S
GREAT BEND     MOSUNNY   81  70  69 SE3       30.10R
LIBERAL        SUNNY     81  68  65 W9        30.13S
PRATT          SUNNY     79  68  69 S3        30.12S
$$

KSZ066>073-081>083-090>101-011600-
SOUTHEAST KANSAS

CITY           SKY/WX    TMP DP  RH WIND       PRES   REMARKS
CHANUTE        SUNNY     82  73  74 VRB5      30.09S
COFFEYVILLE    SUNNY     82  68  62 CALM      30.08F
HUTCHINSON     SUNNY     82  72  71 SE5       30.10R
MEDICINE LODGE   N/A     78  72  81 VRB5      30.11R
NEWTON         SUNNY     81  70  69 CALM      30.12S
PARSONS        SUNNY     82  73  74 CALM      30.10S
WICHITA INTL   MOSUNNY   81  72  74 S7        30.09R
WICHITA JABRA  SUNNY     82  72  71 S7        30.09S
WICHITA MCCONL SUNNY     80  72  75 VRB3      30.10R
WINFIELD       MOSUNNY   81  75  82 S5        30.10S
$$

KSZ007>012-019>026-033>040-048>060-102>105-011600-
NORTHEAST KANSAS

CITY           SKY/WX    TMP DP  RH WIND       PRES   REMARKS
CONCORDIA      SUNNY     79  71  76 NE7       30.10R
EMPORIA        SUNNY     82  72  71 VRB6      30.09S
LAWRENCE       SUNNY     82  74  76 NW9       30.08R
MANHATTAN      SUNNY     84  72  67 NW3       30.08S
MARYSVILLE     SUNNY     79  68  69 N7        30.09S
OLATHE IND     SUNNY     83  74  74 W7        30.09R
OLATHE EXE     SUNNY     83  72  69 W8        30.08R
SALINA         SUNNY     84  72  67 SW5       30.07F
TOPEKA BILLARD SUNNY     82  73  74 VRB5      30.08R
TOPEKA FORBES  SUNNY     85  73  67 NW10      30.09R
$$


USA.gov is the U.S. government's official web portal to all federal, state and local government web resources and services.